Beaver, WV

2:38 PM EST on January 17, 2017 (GMT -0500)
Raleigh County Memorial

Weather History for KBKW - August, 2014

Change the Weather History Date:

Friday, August 1, 2014

  Actual Average Record
Temperature  
Mean Temperature 68 °F 70 °F  
Max Temperature 74 °F 80 °F 94 °F (1931)
Min Temperature 61 °F 61 °F 46 °F (1912)
Degree Days  
Heating Degree Days 0 0  
Month to date heating degree days 0 0  
Since 1 June heating degree days 34 47  
Since 1 July heating degree days 22 8  
Cooling Degree Days 3 6  
Month to date cooling degree days 3 6  
Year to date cooling degree days 400 339  
Since 1 June cooling degree days 325 298  
Growing Degree Days 18 (Base 50)    
Moisture  
Dew Point 57 °F    
Average Humidity 69    
Maximum Humidity 84    
Minimum Humidity 53    
Precipitation  
Precipitation 0.00 in 0.14 in 0.95 in (1932)
Month to date precipitation 0.00 0.14  
Year to date precipitation 20.48 26.33  
Snow  
Snow 0.00 in - - ()
Month to date snowfall 0.0  
Since 1 September snowfall 76.3  
Snow Depth 0.00 in    
Sea Level Pressure  
Sea Level Pressure 30.12 in    
Wind  
Wind Speed 8 mph (SE)    
Max Wind Speed 18 mph    
Max Gust Speed 26 mph    
Visibility 10 miles    
Events      
T = Trace of Precipitation, MM = Missing Value Source: NWS Daily Summary

Daily Weather History Graph

Daily Weather History Graph

Search for Another Location

Airport or City:

Trip Planner

Search our weather history database for the weather conditions in past years. The results will help you decide how hot, cold, wet, or windy it might be!

Date:

Astronomy

Aug. 01, 2014 Rise Set
Actual Time 6:27 AM EDT 8:33 PM EDT
Civil Twilight 5:58 AM EDT 9:02 PM EDT
Nautical Twilight 5:23 AM EDT 9:37 PM EDT
Astronomical Twilight 4:44 AM EDT 10:15 PM EDT
Moon 11:43 AM EDT (8/1) 11:23 PM EDT (8/1)
Length of Visible Light 15h 03m
Length of Day
14h 05m
Waxing Crescent, 27% of the Moon is Illuminated
Aug 1
Waxing Crescent
Aug 3
First Quarter
Aug 10
Full
Aug 17
Last Quarter
Aug 25
New

Hourly Weather History & Observations

Time (EDT) Temp. Dew Point Humidity Pressure Visibility Wind Dir Wind Speed Gust Speed Precip Events Conditions
12:51 AM 64.0 °F 59.0 °F 84% 30.12 in 10.0 mi SSE 6.9 mph - N/A   Mostly Cloudy
1:51 AM 64.0 °F 59.0 °F 84% 30.11 in 10.0 mi SSE 6.9 mph - N/A   Mostly Cloudy
2:51 AM 64.0 °F 57.9 °F 80% 30.09 in 10.0 mi SSE 3.5 mph - N/A   Overcast
3:51 AM 63.0 °F 57.0 °F 81% 30.09 in 10.0 mi SE 5.8 mph - N/A   Partly Cloudy
4:51 AM 63.0 °F 55.9 °F 78% 30.08 in 10.0 mi SE 9.2 mph - N/A   Clear
5:51 AM 63.0 °F 55.9 °F 78% 30.09 in 10.0 mi SE 8.1 mph - N/A   Clear
6:51 AM 64.0 °F 57.9 °F 80% 30.09 in 10.0 mi SE 8.1 mph - N/A   Partly Cloudy
7:51 AM 64.9 °F 59.0 °F 81% 30.11 in 10.0 mi SE 8.1 mph - N/A   Scattered Clouds
8:51 AM 64.9 °F 59.0 °F 81% 30.13 in 10.0 mi ESE 5.8 mph - N/A   Overcast
9:07 AM 64.9 °F 60.1 °F 84% 30.21 in 10.0 mi SE 3.5 mph - N/A   Overcast
9:51 AM 64.9 °F 59.0 °F 81% 30.15 in 10.0 mi SE 6.9 mph - N/A   Overcast
10:51 AM 66.2 °F 57.2 °F 73% 30.22 in 10.0 mi SSE 5.8 mph - N/A   Overcast
11:00 AM 66.9 °F 57.0 °F 70% 30.22 in 10.0 mi SE 8.1 mph - N/A   Overcast
11:51 AM 70.0 °F 57.9 °F 65% 30.14 in 10.0 mi SE 8.1 mph - N/A   Overcast
12:51 PM 71.1 °F 57.9 °F 63% 30.14 in 10.0 mi SSE 16.1 mph 19.6 mph N/A   Overcast
1:51 PM 72.0 °F 57.9 °F 61% 30.14 in 10.0 mi South 13.8 mph 19.6 mph N/A   Mostly Cloudy
2:51 PM 72.0 °F 57.9 °F 61% 30.12 in 10.0 mi ESE 11.5 mph - N/A   Mostly Cloudy
3:51 PM 71.1 °F 57.9 °F 63% 30.11 in 10.0 mi SE 10.4 mph - N/A   Overcast
4:51 PM 73.4 °F 55.4 °F 53% 30.17 in 10.0 mi SE 12.7 mph - N/A   Mostly Cloudy
5:51 PM 72.0 °F 55.9 °F 57% 30.09 in 10.0 mi South 10.4 mph - N/A   Clear
6:51 PM 71.1 °F 55.0 °F 57% 30.08 in 10.0 mi SE 10.4 mph - N/A   Partly Cloudy
7:51 PM 68.0 °F 55.9 °F 65% 30.09 in 10.0 mi SE 6.9 mph - N/A   Clear
8:51 PM 64.9 °F 55.0 °F 70% 30.10 in 10.0 mi SE 6.9 mph - N/A   Clear
9:51 PM 63.0 °F 55.0 °F 75% 30.12 in 10.0 mi ESE 5.8 mph - N/A   Partly Cloudy
10:51 PM 62.1 °F 54.0 °F 75% 30.12 in 10.0 mi SE 5.8 mph - N/A   Partly Cloudy
11:51 PM 62.1 °F 53.1 °F 72% 30.12 in 10.0 mi Calm Calm - N/A   Overcast